Floro, Norway

3:23 PM CEST on September 19, 2019 (GMT +0200)
Floro

Weather History for ENFL - August, 2019

Change the Weather History Date:

Sunday, August 25, 2019

  Actual Average Record
Temperature  
Mean Temperature 62 °F -  
Max Temperature 66 °F 57 °F 68 °F (2006)
Min Temperature 59 °F 50 °F 44 °F (1998)
Degree Days  
Heating Degree Days 2    
Growing Degree Days 12 (Base 50)    
Moisture  
Dew Point 58 °F    
Average Humidity 84    
Maximum Humidity 94    
Minimum Humidity 68    
Precipitation  
Precipitation 0.00 in - - ()
Sea Level Pressure  
Sea Level Pressure 30.14 in    
Wind  
Wind Speed 16 mph ()    
Max Wind Speed 25 mph    
Max Gust Speed -    
Visibility 6.1 miles    
Events Rain    
Averages and records for this station are not official NWS values.
T = Trace of Precipitation, MM = Missing Value Source: Averaged Metar Reports

Daily Weather History Graph

Daily Weather History Graph

Search for Another Location

Airport or City:

Astronomy

Aug. 25, 2019 Rise Set
Actual Time 6:11 AM CEST 9:10 PM CEST
Civil Twilight 5:20 AM CEST 10:01 PM CEST
Nautical Twilight 4:09 AM CEST 11:11 PM CEST
Astronomical Twilight 2:14 AM CEST 1:09 AM CEST
Moon No Moon Rise 6:22 PM CEST (8/25)
Length of Visible Light 16h 40m
Length of Day
14h 59m
Waning Crescent, 32% of the Moon is Illuminated
Aug 25
Waning Crescent
Aug 30
New
Sep 6
First Quarter
Sep 14
Full
Sep 22
Last Quarter

Hourly Weather History & Observations

Time (CEST) Temp. Dew Point Humidity Pressure Visibility Wind Dir Wind Speed Gust Speed Precip Events Conditions
12:20 AM 62.6 °F 57.2 °F 82% 30.12 in 6.2 mi South 19.6 mph - N/A   Overcast
12:50 AM 64.4 °F 57.2 °F 77% 30.12 in 6.2 mi South 25.3 mph - N/A   Overcast
1:00 AM 64 °F 56 °F 70% 30.13 in - South 24.6 mph - -  
1:20 AM 64.4 °F 57.2 °F 77% 30.12 in 6.2 mi South 24.2 mph - N/A   Overcast
1:50 AM 64.4 °F 55.4 °F 73% 30.12 in 6.2 mi South 24.2 mph - N/A   Overcast
2:00 AM 64 °F 56 °F 68% 30.12 in - South 22.4 mph - -  
2:20 AM 64.4 °F 55.4 °F 73% 30.12 in 6.2 mi South 23.0 mph - N/A   Overcast
2:50 AM 62.6 °F 55.4 °F 77% 30.12 in 6.2 mi South 23.0 mph - N/A   Mostly Cloudy
3:00 AM 63 °F 55 °F 68% 30.12 in - South 24.6 mph - -  
3:20 AM 62.6 °F 55.4 °F 77% 30.09 in 6.2 mi South 25.3 mph - N/A   Overcast
3:50 AM 62.6 °F 55.4 °F 77% 30.12 in 6.2 mi South 23.0 mph - N/A   Overcast
4:20 AM 62.6 °F 55.4 °F 77% 30.12 in 6.2 mi SSW 20.7 mph - N/A   Overcast
4:50 AM 62.6 °F 55.4 °F 77% 30.12 in 6.2 mi South 24.2 mph - N/A   Overcast
5:00 AM 63 °F 56 °F 70% 30.12 in - SSW 22.4 mph - -  
5:20 AM 62.6 °F 55.4 °F 77% 30.12 in 6.2 mi South 24.2 mph - N/A   Overcast
5:50 AM 62.6 °F 57.2 °F 82% 30.12 in 6.2 mi South 25.3 mph - N/A   Overcast
6:00 AM 62 °F 56 °F 76% 30.14 in - SSW 15.7 mph - -  
6:20 AM 62.6 °F 57.2 °F 82% 30.12 in 6.2 mi SSW 18.4 mph - N/A   Overcast
6:50 AM 62.6 °F 57.2 °F 82% 30.12 in 6.2 mi SSW 16.1 mph - N/A Rain Light Rain Showers
7:00 AM 62 °F 57 °F 77% 30.14 in - South 20.1 mph - -  
7:20 AM 60.8 °F 57.2 °F 88% 30.12 in 6.2 mi SSW 15.0 mph - N/A Rain Light Rain Showers
7:50 AM 60.8 °F 57.2 °F 88% 30.15 in 5.6 mi South 13.8 mph - N/A Rain Light Rain Showers
8:00 AM 61 °F 58 °F 85% 30.15 in - South 15.7 mph - -  
8:20 AM 59.0 °F 57.2 °F 94% 30.15 in 6.2 mi SSW 12.7 mph - N/A Rain Light Rain
8:50 AM 60.8 °F 57.2 °F 88% 30.12 in 6.2 mi South 19.6 mph - N/A   Mostly Cloudy
9:00 AM 61 °F 58 °F 87% 30.14 in - South 17.9 mph - -  
9:20 AM 60.8 °F 57.2 °F 88% 30.12 in 6.2 mi South 15.0 mph - N/A   Mostly Cloudy
9:50 AM 60.8 °F 57.2 °F 88% 30.12 in 6.2 mi South 15.0 mph - N/A   Mostly Cloudy
10:00 AM 62 °F 58 °F 84% 30.15 in - SSW 13.4 mph - -  
10:20 AM 62.6 °F 59.0 °F 88% 30.12 in 6.2 mi South 17.3 mph - N/A   Overcast
10:50 AM 62.6 °F 59.0 °F 88% 30.15 in 6.2 mi SSW 11.5 mph - N/A   Overcast
11:00 AM 62 °F 58 °F 84% 30.16 in - SSW 11.2 mph - -  
11:20 AM 62.6 °F 59.0 °F 88% 30.15 in 6.2 mi SSW 13.8 mph - N/A   Overcast
11:50 AM 62.6 °F 59.0 °F 88% 30.15 in 6.2 mi SSW 12.7 mph - N/A   Overcast
12:50 PM 62.6 °F 59.0 °F 88% 30.15 in 6.2 mi SSW 10.4 mph - N/A   Mostly Cloudy
1:00 PM 62 °F 59 °F 85% 30.17 in - SSW 8.9 mph - -  
1:20 PM 62.6 °F 59.0 °F 88% 30.15 in 6.2 mi SSW 9.2 mph - N/A   Overcast
1:50 PM 62.6 °F 59.0 °F 88% 30.15 in 6.2 mi SSW 12.7 mph - N/A   Overcast
2:00 PM 63 °F 60 °F 85% 30.17 in - SSW 11.2 mph - -  
2:20 PM 64.4 °F 60.8 °F 88% 30.15 in 6.2 mi SSW 15.0 mph - N/A   Overcast
2:50 PM 64.4 °F 59.0 °F 83% 30.15 in 6.2 mi SSW 13.8 mph - N/A   Overcast
3:20 PM 64.4 °F 59.0 °F 83% 30.15 in 6.2 mi South 13.8 mph - N/A   Overcast
3:50 PM 64.4 °F 60.8 °F 88% 30.15 in 6.2 mi South 16.1 mph - N/A   Overcast
4:00 PM 65 °F 60 °F 79% 30.17 in - SSW 15.7 mph - -  
4:20 PM 66.2 °F 60.8 °F 83% 30.15 in 6.2 mi SSW 12.7 mph - N/A   Mostly Cloudy
5:00 PM 65 °F 60 °F 78% 30.17 in - SSW 8.9 mph - -  
5:20 PM 64.4 °F 59.0 °F 83% 30.15 in 6.2 mi SSW 12.7 mph - N/A   Mostly Cloudy
5:50 PM 64.4 °F 60.8 °F 88% 30.15 in 6.2 mi SSW 11.5 mph - N/A   Scattered Clouds
6:20 PM 64.4 °F 59.0 °F 83% 30.15 in 6.2 mi SSW 12.7 mph - N/A   Scattered Clouds
6:50 PM 62.6 °F 59.0 °F 88% 30.12 in 6.2 mi SSW 13.8 mph - N/A   Scattered Clouds
7:20 PM 62.6 °F 59.0 °F 88% 30.12 in 6.2 mi SSW 10.4 mph - N/A   Scattered Clouds
7:50 PM 62.6 °F 59.0 °F 88% 30.12 in 6.2 mi SSW 11.5 mph - N/A   Scattered Clouds
8:00 PM 63 °F 59 °F 83% 30.15 in - SSW 11.2 mph - -  
8:50 PM 60.8 °F 59.0 °F 94% 30.15 in 6.2 mi SSW 9.2 mph - N/A   Scattered Clouds
9:00 PM 61 °F 58 °F 86% 30.16 in - SSW 6.7 mph - -  
9:20 PM 60.8 °F 57.2 °F 88% 30.15 in 6.2 mi SSW 6.9 mph - N/A   Scattered Clouds
9:50 PM 60.8 °F 57.2 °F 88% 30.15 in 5.6 mi Variable 2.3 mph - N/A   Scattered Clouds
10:00 PM 60 °F 58 °F 91% 30.17 in - East 2.2 mph - -  
10:20 PM 59.0 °F 57.2 °F 94% 30.15 in 6.2 mi South 4.6 mph - N/A   Scattered Clouds
10:50 PM 59.0 °F 57.2 °F 94% 30.15 in 3.7 mi Calm Calm - N/A   Unknown
11:00 PM 59 °F 57 °F 92% 30.17 in - Calm Calm - -  
11:20 PM 59.0 °F 57.2 °F 94% 30.15 in 4.3 mi SE 5.8 mph - N/A   Unknown